Year,Month,Day,Hour,Minute,Value (Times are PST for temperature in C)
2010,10,01,00,00,11.90
2010,10,01,00,01,11.90
2010,10,01,00,02,11.90
2010,10,01,00,03,11.90
2010,10,01,00,04,11.90
2010,10,01,00,05,11.90
2010,10,01,00,06,11.90
2010,10,01,00,07,11.90
2010,10,01,00,08,11.90
2010,10,01,00,09,11.90
2010,10,01,00,10,11.90
2010,10,01,00,11,11.90
2010,10,01,00,12,11.90
2010,10,01,00,16,11.90
2010,10,01,00,17,11.90
2010,10,01,00,18,11.90
2010,10,01,00,19,11.90
2010,10,01,00,20,11.90
2010,10,01,00,21,11.90
2010,10,01,00,22,11.90
2010,10,01,00,23,11.90
2010,10,01,00,24,11.90
2010,10,01,00,25,11.90
2010,10,01,00,26,11.90
2010,10,01,00,27,11.90
2010,10,01,00,28,11.90
2010,10,01,00,29,11.90
2010,10,01,00,30,11.90
2010,10,01,00,31,11.90
2010,10,01,00,32,11.90
2010,10,01,00,33,11.90
2010,10,01,00,34,11.90
2010,10,01,00,35,11.90
2010,10,01,00,36,11.90
2010,10,01,00,37,11.90
2010,10,01,00,38,11.90
2010,10,01,00,39,11.90
2010,10,01,00,40,11.90
2010,10,01,00,41,11.90
2010,10,01,00,42,11.90
2010,10,01,00,43,11.90
2010,10,01,00,44,11.90
2010,10,01,00,45,11.90
2010,10,01,00,46,11.90
2010,10,01,00,47,11.90
2010,10,01,00,48,11.90
2010,10,01,00,49,11.90
2010,10,01,00,50,11.90
2010,10,01,00,51,11.90
2010,10,01,00,52,11.90
2010,10,01,00,53,11.90
2010,10,01,00,54,11.80
2010,10,01,00,55,11.80
2010,10,01,00,56,11.80
2010,10,01,00,57,11.80
2010,10,01,00,58,11.80
2010,10,01,00,59,11.80
2010,10,01,01,00,11.80
2010,10,01,01,01,11.80
2010,10,01,01,02,11.80
2010,10,01,01,03,11.80
2010,10,01,01,04,11.80
2010,10,01,01,05,11.80
2010,10,01,01,06,11.80
2010,10,01,01,07,11.80
2010,10,01,01,08,11.80
2010,10,01,01,09,11.80
2010,10,01,01,10,11.80
2010,10,01,01,11,11.80
2010,10,01,01,12,11.80
2010,10,01,01,13,11.80
2010,10,01,01,14,11.80
2010,10,01,01,15,11.80
2010,10,01,01,16,11.80
2010,10,01,01,17,11.80
2010,10,01,01,18,11.80
2010,10,01,01,19,11.80
2010,10,01,01,20,11.80
2010,10,01,01,21,11.80
2010,10,01,01,22,11.80
2010,10,01,01,23,11.80
2010,10,01,01,24,11.80
2010,10,01,01,25,11.80
2010,10,01,01,26,11.70
2010,10,01,01,27,11.70
2010,10,01,01,28,11.70
2010,10,01,01,29,11.70
2010,10,01,01,30,11.70
2010,10,01,01,31,11.70
2010,10,01,01,32,11.60
2010,10,01,01,33,11.60
2010,10,01,01,34,11.60
2010,10,01,01,35,11.60
2010,10,01,01,36,11.60
2010,10,01,01,37,11.60
2010,10,01,01,38,11.60
2010,10,01,01,39,11.60
2010,10,01,01,40,11.60
2010,10,01,01,41,11.60
2010,10,01,01,42,11.60
2010,10,01,01,43,11.60
2010,10,01,01,44,11.60
2010,10,01,01,45,11.60
2010,10,01,01,46,11.60
2010,10,01,01,47,11.60
2010,10,01,01,48,11.60
2010,10,01,01,49,11.60
2010,10,01,01,50,11.60
2010,10,01,01,51,11.60
2010,10,01,01,52,11.60
2010,10,01,01,53,11.60
2010,10,01,01,54,11.60
2010,10,01,01,55,11.60
2010,10,01,01,56,11.60
2010,10,01,01,57,11.60
2010,10,01,01,58,11.60
2010,10,01,01,59,11.60
2010,10,01,02,00,11.60
2010,10,01,02,01,11.60
2010,10,01,02,02,11.60
2010,10,01,02,03,11.60
2010,10,01,02,04,11.60
2010,10,01,02,05,11.60
2010,10,01,02,06,11.60
2010,10,01,02,07,11.60
2010,10,01,02,08,11.60
2010,10,01,02,09,11.60
2010,10,01,02,10,11.60
2010,10,01,02,11,11.60
2010,10,01,02,12,11.70
2010,10,01,02,13,11.70
2010,10,01,02,14,11.70
2010,10,01,02,15,11.60
2010,10,01,02,16,11.70
2010,10,01,02,17,11.60
2010,10,01,02,18,11.70
2010,10,01,02,19,11.70
2010,10,01,02,20,11.70
2010,10,01,02,21,11.70
2010,10,01,02,22,11.70
2010,10,01,02,23,11.70
2010,10,01,02,24,11.70
2010,10,01,02,25,11.70
2010,10,01,02,26,11.70
2010,10,01,02,27,11.70
2010,10,01,02,28,11.70
2010,10,01,02,29,11.70
2010,10,01,02,30,11.70
2010,10,01,02,31,11.70
2010,10,01,02,32,11.70
2010,10,01,02,33,11.70
2010,10,01,02,34,11.70
2010,10,01,02,35,11.70
2010,10,01,02,36,11.70
2010,10,01,02,37,11.70
2010,10,01,02,38,11.70
2010,10,01,02,39,11.70
2010,10,01,02,40,11.70
2010,10,01,02,41,11.70
2010,10,01,02,42,11.70
2010,10,01,02,43,11.60
2010,10,01,02,44,11.60
2010,10,01,02,45,11.60
2010,10,01,02,46,11.60
2010,10,01,02,47,11.60
2010,10,01,02,48,11.60
2010,10,01,02,49,11.60
2010,10,01,02,50,11.60
2010,10,01,02,51,11.60
2010,10,01,02,52,11.60
2010,10,01,02,53,11.60
2010,10,01,02,54,11.60
2010,10,01,02,55,11.50
2010,10,01,02,56,11.40
2010,10,01,02,57,11.40
2010,10,01,02,58,11.40
2010,10,01,02,59,11.40
2010,10,01,03,00,11.40
2010,10,01,03,01,11.40
2010,10,01,03,02,11.40
2010,10,01,03,03,11.40
2010,10,01,03,04,11.40
2010,10,01,03,05,11.40
2010,10,01,03,06,11.40
2010,10,01,03,07,11.40
2010,10,01,03,08,11.40
2010,10,01,03,09,11.40
2010,10,01,03,10,11.40
2010,10,01,03,11,11.40
2010,10,01,03,12,11.40
2010,10,01,03,13,11.40
2010,10,01,03,14,11.30
2010,10,01,03,15,11.30
2010,10,01,03,16,11.30
2010,10,01,03,17,11.30
2010,10,01,03,18,11.30
2010,10,01,03,19,11.30
2010,10,01,03,20,11.30
2010,10,01,03,21,11.30
2010,10,01,03,22,11.30
2010,10,01,03,23,11.30
2010,10,01,03,24,11.30
2010,10,01,03,25,11.30
2010,10,01,03,26,11.30
2010,10,01,03,27,11.30
2010,10,01,03,28,11.30
2010,10,01,03,29,11.30
2010,10,01,03,30,11.30
2010,10,01,03,31,11.30
2010,10,01,03,32,11.30
2010,10,01,03,33,11.30
2010,10,01,03,34,11.30
2010,10,01,03,35,11.30
2010,10,01,03,36,11.30
2010,10,01,03,37,11.30
2010,10,01,03,38,11.20
2010,10,01,03,39,11.20
2010,10,01,03,40,11.20
2010,10,01,03,41,11.20
2010,10,01,03,42,11.20
2010,10,01,03,43,11.20
2010,10,01,03,44,11.20
2010,10,01,03,45,11.20
2010,10,01,03,46,11.20
2010,10,01,03,47,11.10
2010,10,01,03,48,11.10
2010,10,01,03,49,11.10
2010,10,01,03,50,11.10
2010,10,01,03,51,11.10
2010,10,01,03,52,11.10
2010,10,01,03,53,11.10
2010,10,01,03,54,11.10
2010,10,01,03,55,11.10
2010,10,01,03,56,11.10
2010,10,01,03,57,11.10
2010,10,01,03,58,11.10
2010,10,01,03,59,11.10
2010,10,01,04,00,11.10
2010,10,01,04,01,11.10
2010,10,01,04,02,11.10
2010,10,01,04,03,11.10
2010,10,01,04,04,11.10
2010,10,01,04,05,11.10
2010,10,01,04,06,11.10
2010,10,01,04,07,11.10
2010,10,01,04,08,11.10
2010,10,01,04,09,11.10
2010,10,01,04,10,11.10
2010,10,01,04,11,11.10
2010,10,01,04,12,11.10
2010,10,01,04,13,11.10
2010,10,01,04,14,11.10
2010,10,01,04,15,11.10
2010,10,01,04,16,11.10
2010,10,01,04,17,11.10
2010,10,01,04,18,11.10
2010,10,01,04,19,11.10
2010,10,01,04,20,11.10
2010,10,01,04,21,11.10
2010,10,01,04,22,11.10
2010,10,01,04,23,11.10
2010,10,01,04,24,11.10
2010,10,01,04,25,11.10
2010,10,01,04,26,11.10
2010,10,01,04,27,11.10
2010,10,01,04,28,11.10
2010,10,01,04,29,11.10
2010,10,01,04,30,11.10
2010,10,01,04,31,11.10
2010,10,01,04,32,11.10
2010,10,01,04,33,11.10
2010,10,01,04,34,11.10
2010,10,01,04,35,11.00
2010,10,01,04,36,10.90
2010,10,01,04,37,10.90
2010,10,01,04,38,10.90
2010,10,01,04,39,10.90
2010,10,01,04,40,10.90
2010,10,01,04,41,10.90
2010,10,01,04,42,10.90
2010,10,01,04,43,10.90
2010,10,01,04,44,10.90
2010,10,01,04,45,10.90
2010,10,01,04,46,10.90
2010,10,01,04,47,10.90
2010,10,01,04,48,10.90
2010,10,01,04,49,10.90
2010,10,01,04,50,10.90
2010,10,01,04,51,10.90
2010,10,01,04,52,10.90
2010,10,01,04,53,10.90
2010,10,01,04,54,10.90
2010,10,01,04,55,10.90
2010,10,01,04,56,10.90
2010,10,01,04,57,10.90
2010,10,01,04,58,10.90
2010,10,01,04,59,10.90
2010,10,01,05,00,10.90
2010,10,01,05,01,10.90
2010,10,01,05,02,10.90
2010,10,01,05,03,10.90
2010,10,01,05,04,10.90
2010,10,01,05,05,10.90
2010,10,01,05,06,10.90
2010,10,01,05,07,10.90
2010,10,01,05,08,10.90
2010,10,01,05,09,10.90
2010,10,01,05,10,10.90
2010,10,01,05,11,10.90
2010,10,01,05,12,10.90
2010,10,01,05,13,10.90
2010,10,01,05,14,10.90
2010,10,01,05,15,10.90
2010,10,01,05,16,10.90
2010,10,01,05,17,10.90
2010,10,01,05,18,10.90
2010,10,01,05,19,10.90
2010,10,01,05,20,10.90
2010,10,01,05,21,10.90
2010,10,01,05,22,10.90
2010,10,01,05,23,10.90
2010,10,01,05,24,10.90
2010,10,01,05,25,10.90
2010,10,01,05,26,10.90
2010,10,01,05,27,10.90
2010,10,01,05,28,10.90
2010,10,01,05,29,10.90
2010,10,01,05,30,11.10
2010,10,01,05,31,11.10
2010,10,01,05,32,11.10
2010,10,01,05,33,11.10
2010,10,01,05,34,11.00
2010,10,01,05,35,10.90
2010,10,01,05,36,10.90
2010,10,01,05,37,10.90
2010,10,01,05,38,10.90
2010,10,01,05,39,10.90
2010,10,01,05,40,10.90
2010,10,01,05,41,10.90
2010,10,01,05,42,11.00
2010,10,01,05,43,11.00
2010,10,01,05,44,11.00
2010,10,01,05,45,11.10
2010,10,01,05,46,11.10
2010,10,01,05,47,11.10
2010,10,01,05,48,11.10
2010,10,01,05,49,11.10
2010,10,01,05,50,11.10
2010,10,01,05,51,11.10
2010,10,01,05,52,11.10
2010,10,01,05,53,11.10
2010,10,01,05,54,11.10
2010,10,01,05,55,11.00
2010,10,01,05,56,11.00
2010,10,01,05,57,10.90
2010,10,01,05,58,10.90
2010,10,01,05,59,10.90
2010,10,01,06,00,10.90
2010,10,01,06,01,10.90
2010,10,01,06,02,10.90
2010,10,01,06,03,10.90
2010,10,01,06,04,10.90
2010,10,01,06,05,10.90
2010,10,01,06,06,10.90
2010,10,01,06,07,10.90
2010,10,01,06,08,10.90
2010,10,01,06,09,10.90
2010,10,01,06,10,10.90
2010,10,01,06,11,10.90
2010,10,01,06,12,10.90
2010,10,01,06,13,10.90
2010,10,01,06,14,10.90
2010,10,01,06,15,10.90
2010,10,01,06,16,10.90
2010,10,01,06,17,10.90
2010,10,01,06,18,10.90
2010,10,01,06,19,10.90
2010,10,01,06,20,10.90
2010,10,01,06,21,10.90
2010,10,01,06,22,10.90
2010,10,01,06,23,10.90
2010,10,01,06,24,10.90
2010,10,01,06,25,10.90
2010,10,01,06,26,10.90
2010,10,01,06,27,10.90
2010,10,01,06,28,10.90
2010,10,01,06,29,10.90
2010,10,01,06,30,10.90
2010,10,01,06,31,10.90
2010,10,01,06,32,10.90
2010,10,01,06,33,10.90
2010,10,01,06,34,10.90
2010,10,01,06,35,10.90
2010,10,01,06,36,10.90
2010,10,01,06,37,10.90
2010,10,01,06,38,10.90
2010,10,01,06,39,10.90
2010,10,01,06,40,10.90
2010,10,01,06,41,10.90
2010,10,01,06,42,10.90
2010,10,01,06,43,10.90
2010,10,01,06,44,10.90
2010,10,01,06,45,10.90
2010,10,01,06,46,10.90
2010,10,01,06,47,10.90
2010,10,01,06,48,10.90
2010,10,01,06,49,10.90
2010,10,01,06,50,10.90
2010,10,01,06,51,10.90
2010,10,01,06,52,10.90
2010,10,01,06,53,10.90
2010,10,01,06,54,10.90
2010,10,01,06,55,10.90
2010,10,01,06,56,10.90
2010,10,01,06,57,10.90
2010,10,01,06,58,10.90
2010,10,01,06,59,10.90
2010,10,01,07,00,10.90
2010,10,01,07,01,10.90
2010,10,01,07,02,10.90
2010,10,01,07,03,10.90
2010,10,01,07,04,10.90
2010,10,01,07,05,10.90
2010,10,01,07,06,10.90
2010,10,01,07,07,10.90
2010,10,01,07,08,10.90
2010,10,01,07,09,10.90
2010,10,01,07,10,10.90
2010,10,01,07,11,10.90
2010,10,01,07,12,11.00
2010,10,01,07,13,11.10
2010,10,01,07,14,11.10
2010,10,01,07,15,11.10
2010,10,01,07,16,11.10
2010,10,01,07,17,11.10
2010,10,01,07,18,11.10
2010,10,01,07,19,11.10
2010,10,01,07,20,11.10
2010,10,01,07,21,11.10
2010,10,01,07,22,11.10
2010,10,01,07,23,11.10
2010,10,01,07,24,11.10
2010,10,01,07,25,11.10
2010,10,01,07,26,11.10
2010,10,01,07,27,11.10
2010,10,01,07,28,11.10
2010,10,01,07,29,11.10
2010,10,01,07,30,11.10
2010,10,01,07,31,11.10
2010,10,01,07,32,11.10
2010,10,01,07,33,11.10
2010,10,01,07,34,11.10
2010,10,01,07,35,11.10
2010,10,01,07,36,11.10
2010,10,01,07,37,11.10
2010,10,01,07,38,11.10
2010,10,01,07,39,11.10
2010,10,01,07,40,11.10
2010,10,01,07,41,11.10
2010,10,01,07,42,11.10
2010,10,01,07,43,11.10
2010,10,01,07,44,11.10
2010,10,01,07,45,11.10
2010,10,01,07,46,11.10
2010,10,01,07,47,11.10
2010,10,01,07,48,11.10
2010,10,01,07,49,11.10
2010,10,01,07,50,11.10
2010,10,01,07,51,11.10
2010,10,01,07,52,11.10
2010,10,01,07,53,11.10
2010,10,01,07,54,11.10
2010,10,01,07,55,11.10
2010,10,01,07,56,11.20
2010,10,01,07,57,11.20
2010,10,01,07,58,11.20
2010,10,01,07,59,11.20
2010,10,01,08,00,11.20
2010,10,01,08,01,11.20
2010,10,01,08,02,11.20
2010,10,01,08,03,11.20
2010,10,01,08,04,11.20
2010,10,01,08,05,11.30
2010,10,01,08,06,11.30
2010,10,01,08,07,11.30
2010,10,01,08,08,11.30
2010,10,01,08,09,11.30
2010,10,01,08,10,11.30
2010,10,01,08,11,11.30
2010,10,01,08,12,11.30
2010,10,01,08,13,11.30
2010,10,01,08,14,11.40
2010,10,01,08,15,11.40
2010,10,01,08,16,11.40
2010,10,01,08,17,11.40
2010,10,01,08,18,11.40
2010,10,01,08,19,11.40
2010,10,01,08,20,11.40
2010,10,01,08,21,11.40
2010,10,01,08,22,11.40
2010,10,01,08,23,11.40
2010,10,01,08,24,11.40
2010,10,01,08,25,11.40
2010,10,01,08,26,11.50
2010,10,01,08,27,11.60
2010,10,01,08,28,11.60
2010,10,01,08,29,11.60
2010,10,01,08,30,11.60
2010,10,01,08,31,11.60
2010,10,01,08,32,11.60
2010,10,01,08,33,11.70
2010,10,01,08,34,11.70
2010,10,01,08,35,11.70
2010,10,01,08,36,11.80
2010,10,01,08,37,11.80
2010,10,01,08,38,11.80
2010,10,01,08,39,11.80
2010,10,01,08,40,11.80
2010,10,01,08,41,11.80
2010,10,01,08,42,11.90
2010,10,01,08,43,11.90
2010,10,01,08,44,11.90
2010,10,01,08,45,12.00
2010,10,01,08,46,12.00
2010,10,01,08,47,12.10
2010,10,01,08,48,12.20
2010,10,01,08,49,12.30
2010,10,01,08,50,12.40
2010,10,01,08,51,12.50
2010,10,01,08,52,12.60
2010,10,01,08,53,12.70
2010,10,01,08,54,12.80
2010,10,01,08,55,13.00
2010,10,01,08,56,13.10
2010,10,01,08,57,13.20
2010,10,01,08,58,13.40
2010,10,01,08,59,13.50
2010,10,01,09,00,13.70
2010,10,01,09,01,13.90
2010,10,01,09,02,14.00
2010,10,01,09,03,14.20
2010,10,01,09,04,14.40
2010,10,01,09,05,14.50
2010,10,01,09,06,14.60
2010,10,01,09,07,14.70
2010,10,01,09,08,14.90
2010,10,01,09,09,15.00
2010,10,01,09,10,15.00
2010,10,01,09,11,15.00
2010,10,01,09,12,15.00
2010,10,01,09,13,15.00
2010,10,01,09,14,15.00
2010,10,01,09,15,14.90
2010,10,01,09,16,14.90
2010,10,01,09,17,14.80
2010,10,01,09,18,14.80
2010,10,01,09,19,14.80
2010,10,01,09,20,14.80
2010,10,01,09,21,14.80
2010,10,01,09,22,14.70
2010,10,01,09,23,14.70
2010,10,01,09,24,14.70
2010,10,01,09,25,14.60
2010,10,01,09,26,14.60
2010,10,01,09,27,14.60
2010,10,01,09,28,14.60
2010,10,01,09,29,14.70
2010,10,01,09,30,14.70
2010,10,01,09,31,14.70
2010,10,01,09,32,14.70
2010,10,01,09,33,14.80
2010,10,01,09,34,14.80
2010,10,01,09,35,14.80
2010,10,01,09,36,14.90
2010,10,01,09,37,15.00
2010,10,01,09,38,15.10
2010,10,01,09,39,15.20
2010,10,01,09,40,15.20
2010,10,01,09,41,15.30
2010,10,01,09,42,15.30
2010,10,01,09,43,15.30
2010,10,01,09,44,15.30
2010,10,01,09,45,15.30
2010,10,01,09,46,15.30
2010,10,01,09,47,15.30
2010,10,01,09,48,15.40
2010,10,01,09,49,15.30
2010,10,01,09,50,15.30
2010,10,01,09,51,15.30
2010,10,01,09,52,15.30
2010,10,01,09,53,15.30
2010,10,01,09,54,15.30
2010,10,01,09,55,15.30
2010,10,01,09,56,15.30
2010,10,01,09,57,15.30
2010,10,01,09,58,15.30
2010,10,01,09,59,15.30
2010,10,01,10,00,15.30
2010,10,01,10,01,15.40
2010,10,01,10,02,15.50
2010,10,01,10,03,15.50
2010,10,01,10,04,15.60
2010,10,01,10,05,15.70
2010,10,01,10,06,15.70
2010,10,01,10,07,15.80
2010,10,01,10,08,15.80
2010,10,01,10,09,16.00
2010,10,01,10,10,16.10
2010,10,01,10,11,16.10
2010,10,01,10,12,16.20
2010,10,01,10,13,16.20
2010,10,01,10,14,16.20
2010,10,01,10,15,16.20
2010,10,01,10,16,16.20
2010,10,01,10,17,16.20
2010,10,01,10,18,16.10
2010,10,01,10,19,16.10
2010,10,01,10,20,16.10
2010,10,01,10,21,16.10
2010,10,01,10,22,16.10
2010,10,01,10,23,16.20
2010,10,01,10,24,16.30
2010,10,01,10,25,16.40
2010,10,01,10,26,16.40
2010,10,01,10,27,16.40
2010,10,01,10,28,16.60
2010,10,01,10,29,16.70
2010,10,01,10,30,16.70
2010,10,01,10,31,16.80
2010,10,01,10,32,16.90
2010,10,01,10,33,16.90
2010,10,01,10,34,17.00
2010,10,01,10,35,17.00
2010,10,01,10,36,17.00
2010,10,01,10,37,17.00
2010,10,01,10,38,17.10
2010,10,01,10,39,17.20
2010,10,01,10,40,17.30
2010,10,01,10,41,17.30
2010,10,01,10,42,17.30
2010,10,01,10,43,17.30
2010,10,01,10,44,17.30
2010,10,01,10,45,17.30
2010,10,01,10,46,17.30
2010,10,01,10,47,17.30
2010,10,01,10,48,17.30
2010,10,01,10,49,17.30
2010,10,01,10,50,17.30
2010,10,01,10,51,17.30
2010,10,01,10,52,17.30
2010,10,01,10,53,17.30
2010,10,01,10,54,17.30
2010,10,01,10,55,17.30
2010,10,01,10,56,17.30
2010,10,01,10,57,17.30
2010,10,01,10,58,17.30
2010,10,01,10,59,17.30
2010,10,01,11,00,17.30
2010,10,01,11,01,17.30
2010,10,01,11,02,17.30
2010,10,01,11,03,17.30
2010,10,01,11,04,17.30
2010,10,01,11,05,17.30
2010,10,01,11,06,17.30
2010,10,01,11,07,17.20
2010,10,01,11,08,17.10
2010,10,01,11,09,17.10
2010,10,01,11,10,17.00
2010,10,01,11,11,17.00
2010,10,01,11,12,16.90
2010,10,01,11,13,16.90
2010,10,01,11,14,16.90
2010,10,01,11,15,16.90
2010,10,01,11,16,16.90
2010,10,01,11,17,16.90
2010,10,01,11,18,17.00
2010,10,01,11,19,17.00
2010,10,01,11,20,17.00
2010,10,01,11,21,17.00
2010,10,01,11,22,17.00
2010,10,01,11,23,17.00
2010,10,01,11,24,17.00
2010,10,01,11,25,17.00
2010,10,01,11,26,17.10
2010,10,01,11,27,17.10
2010,10,01,11,28,17.20
2010,10,01,11,29,17.20
2010,10,01,11,30,17.20
2010,10,01,11,31,17.10
2010,10,01,11,32,17.10
2010,10,01,11,33,17.00
2010,10,01,11,34,17.00
2010,10,01,11,35,17.00
2010,10,01,11,36,17.00
2010,10,01,11,37,17.00
2010,10,01,11,38,17.00
2010,10,01,11,39,17.00
2010,10,01,11,40,17.00
2010,10,01,11,41,17.00
2010,10,01,11,42,17.00
2010,10,01,11,43,17.00
2010,10,01,11,44,17.00
2010,10,01,11,45,17.00
2010,10,01,11,46,17.10
2010,10,01,11,47,17.10
2010,10,01,11,48,17.10
2010,10,01,11,49,17.10
2010,10,01,11,50,17.20
2010,10,01,11,51,17.20
2010,10,01,11,52,17.30
2010,10,01,11,53,17.30
2010,10,01,11,54,17.40
2010,10,01,11,55,17.40
2010,10,01,11,56,17.30
2010,10,01,11,57,17.30
2010,10,01,11,58,17.30
2010,10,01,11,59,17.30
2010,10,01,12,00,17.30
2010,10,01,12,01,17.40
2010,10,01,12,02,17.40
2010,10,01,12,03,17.40
2010,10,01,12,04,17.30
2010,10,01,12,05,17.30
2010,10,01,12,06,17.30
2010,10,01,12,07,17.30
2010,10,01,12,08,17.30
2010,10,01,12,09,17.20
2010,10,01,12,10,17.10
2010,10,01,12,11,17.10
2010,10,01,12,12,17.00
2010,10,01,12,13,17.00
2010,10,01,12,14,16.90
2010,10,01,12,15,16.80
2010,10,01,12,16,16.80
2010,10,01,12,17,16.80
2010,10,01,12,18,16.80
2010,10,01,12,19,16.80
2010,10,01,12,20,16.90
2010,10,01,12,21,16.90
2010,10,01,12,22,16.90
2010,10,01,12,23,16.80
2010,10,01,12,24,16.80
2010,10,01,12,25,16.80
2010,10,01,12,26,16.70
2010,10,01,12,27,16.70
2010,10,01,12,28,16.60
2010,10,01,12,29,16.60
2010,10,01,12,30,16.50
2010,10,01,12,31,16.40
2010,10,01,12,32,16.40
2010,10,01,12,33,16.40
2010,10,01,12,34,16.40
2010,10,01,12,35,16.40
2010,10,01,12,36,16.40
2010,10,01,12,37,16.40
2010,10,01,12,38,16.40
2010,10,01,12,39,16.40
2010,10,01,12,40,16.40
2010,10,01,12,41,16.40
2010,10,01,12,42,16.50
2010,10,01,12,43,16.60
2010,10,01,12,44,16.60
2010,10,01,12,45,16.70
2010,10,01,12,46,16.90
2010,10,01,12,47,16.90
2010,10,01,12,48,16.90
2010,10,01,12,49,16.90
2010,10,01,12,50,16.90
2010,10,01,12,51,16.90
2010,10,01,12,52,17.00
2010,10,01,12,53,17.10
2010,10,01,12,54,17.10
2010,10,01,12,55,17.10
2010,10,01,12,56,17.10
2010,10,01,12,57,17.20
2010,10,01,12,58,17.20
2010,10,01,12,59,17.20
2010,10,01,13,00,17.30
2010,10,01,13,01,17.30
2010,10,01,13,02,17.30
2010,10,01,13,03,17.20
2010,10,01,13,04,17.20
2010,10,01,13,05,17.20
2010,10,01,13,06,17.30
2010,10,01,13,07,17.40
2010,10,01,13,08,17.50
2010,10,01,13,09,17.70
2010,10,01,13,10,17.80
2010,10,01,13,11,17.90
2010,10,01,13,12,17.90
2010,10,01,13,13,18.10
2010,10,01,13,14,18.20
2010,10,01,13,15,18.20
2010,10,01,13,16,18.20
2010,10,01,13,17,18.20
2010,10,01,13,18,18.10
2010,10,01,13,19,18.10
2010,10,01,13,20,18.20
2010,10,01,13,21,18.20
2010,10,01,13,22,18.20
2010,10,01,13,23,18.20
2010,10,01,13,24,18.10
2010,10,01,13,25,18.00
2010,10,01,13,26,17.90
2010,10,01,13,27,17.90
2010,10,01,13,28,17.90
2010,10,01,13,29,17.90
2010,10,01,13,30,17.90
2010,10,01,13,31,17.90
2010,10,01,13,32,17.90
2010,10,01,13,33,17.90
2010,10,01,13,34,17.90
2010,10,01,13,35,17.90
2010,10,01,13,36,17.90
2010,10,01,13,37,17.80
2010,10,01,13,38,17.70
2010,10,01,13,39,17.70
2010,10,01,13,40,17.70
2010,10,01,13,41,17.70
2010,10,01,13,42,17.60
2010,10,01,13,43,17.60
2010,10,01,13,44,17.50
2010,10,01,13,45,17.50
2010,10,01,13,46,17.50
2010,10,01,13,47,17.40
2010,10,01,13,48,17.40
2010,10,01,13,49,17.40
2010,10,01,13,50,17.40
2010,10,01,13,51,17.40
2010,10,01,13,52,17.30
2010,10,01,13,53,17.30
2010,10,01,13,54,17.30
2010,10,01,13,55,17.30
2010,10,01,13,56,17.30
2010,10,01,13,57,17.30
2010,10,01,13,58,17.30
2010,10,01,13,59,17.20
2010,10,01,14,00,17.20
2010,10,01,14,01,17.20
2010,10,01,14,02,17.20
2010,10,01,14,03,17.20
2010,10,01,14,04,17.20
2010,10,01,14,05,17.20
2010,10,01,14,06,17.20
2010,10,01,14,07,17.20
2010,10,01,14,08,17.20
2010,10,01,14,09,17.20
2010,10,01,14,10,17.10
2010,10,01,14,11,17.10
2010,10,01,14,12,17.00
2010,10,01,14,13,17.00
2010,10,01,14,14,17.00
2010,10,01,14,15,17.10
2010,10,01,14,16,17.10
2010,10,01,14,17,17.10
2010,10,01,14,18,17.00
2010,10,01,14,19,17.00
2010,10,01,14,20,17.00
2010,10,01,14,21,17.00
2010,10,01,14,22,17.00
2010,10,01,14,23,17.00
2010,10,01,14,24,17.00
2010,10,01,14,25,17.10
2010,10,01,14,26,17.10
2010,10,01,14,27,17.10
2010,10,01,14,28,17.20
2010,10,01,14,29,17.20
2010,10,01,14,30,17.30
2010,10,01,14,31,17.30
2010,10,01,14,32,17.30
2010,10,01,14,33,17.30
2010,10,01,14,34,17.30
2010,10,01,14,35,17.40
2010,10,01,14,36,17.40
2010,10,01,14,37,17.50
2010,10,01,14,38,17.50
2010,10,01,14,39,17.60
2010,10,01,14,40,17.60
2010,10,01,14,41,17.70
2010,10,01,14,42,17.70
2010,10,01,14,43,17.70
2010,10,01,14,44,17.80
2010,10,01,14,45,17.80
2010,10,01,14,46,17.80
2010,10,01,14,47,17.90
2010,10,01,14,48,17.90
2010,10,01,14,49,17.90
2010,10,01,14,50,18.00
2010,10,01,14,51,18.00
2010,10,01,14,52,17.90
2010,10,01,14,53,17.90
2010,10,01,14,54,17.90
2010,10,01,14,55,17.80
2010,10,01,14,56,17.70
2010,10,01,14,57,17.70
2010,10,01,14,58,17.70
2010,10,01,14,59,17.70
2010,10,01,15,00,17.80
2010,10,01,15,01,17.80
2010,10,01,15,02,17.80
2010,10,01,15,03,17.90
2010,10,01,15,04,17.90
2010,10,01,15,05,17.90
2010,10,01,15,06,17.90
2010,10,01,15,07,17.90
2010,10,01,15,08,18.00
2010,10,01,15,09,18.10
2010,10,01,15,10,18.20
2010,10,01,15,11,18.20
2010,10,01,15,12,18.20
2010,10,01,15,13,18.20
2010,10,01,15,14,18.10
2010,10,01,15,15,18.10
2010,10,01,15,16,18.10
2010,10,01,15,17,18.00
2010,10,01,15,18,17.90
2010,10,01,15,19,17.80
2010,10,01,15,20,17.70
2010,10,01,15,21,17.60
2010,10,01,15,22,17.50
2010,10,01,15,23,17.50
2010,10,01,15,24,17.50
2010,10,01,15,25,17.50
2010,10,01,15,26,17.50
2010,10,01,15,27,17.60
2010,10,01,15,28,17.60
2010,10,01,15,29,17.70
2010,10,01,15,30,17.80
2010,10,01,15,31,17.90
2010,10,01,15,32,17.90
2010,10,01,15,33,17.90
2010,10,01,15,34,17.90
2010,10,01,15,35,17.90
2010,10,01,15,36,17.90
2010,10,01,15,37,17.90
2010,10,01,15,38,18.00
2010,10,01,15,39,18.10
2010,10,01,15,40,18.00
2010,10,01,15,41,17.90
2010,10,01,15,42,17.90
2010,10,01,15,43,17.80
2010,10,01,15,44,17.80
2010,10,01,15,45,17.80
2010,10,01,15,46,17.80
2010,10,01,15,47,17.80
2010,10,01,15,48,17.70
2010,10,01,15,49,17.60
2010,10,01,15,50,17.50
2010,10,01,15,51,17.40
2010,10,01,15,52,17.30
2010,10,01,15,53,17.30
2010,10,01,15,54,17.30
2010,10,01,15,55,17.30
2010,10,01,15,56,17.30
2010,10,01,15,57,17.30
2010,10,01,15,58,17.30
2010,10,01,15,59,17.40
2010,10,01,16,00,17.40
2010,10,01,16,01,17.40
2010,10,01,16,02,17.40
2010,10,01,16,03,17.40
2010,10,01,16,04,17.40
2010,10,01,16,05,17.40
2010,10,01,16,06,17.50
2010,10,01,16,07,17.50
2010,10,01,16,08,17.60
2010,10,01,16,09,17.60
2010,10,01,16,10,17.60
2010,10,01,16,11,17.60
2010,10,01,16,12,17.50
2010,10,01,16,13,17.50
2010,10,01,16,14,17.50
2010,10,01,16,15,17.40
2010,10,01,16,16,17.40
2010,10,01,16,17,17.50
2010,10,01,16,18,17.50
2010,10,01,16,19,17.50
2010,10,01,16,20,17.60
2010,10,01,16,21,17.60
2010,10,01,16,22,17.60
2010,10,01,16,23,17.60
2010,10,01,16,24,17.60
2010,10,01,16,25,17.50
2010,10,01,16,26,17.40
2010,10,01,16,27,17.30
2010,10,01,16,28,17.20
2010,10,01,16,29,17.00
2010,10,01,16,30,17.00
2010,10,01,16,31,16.90
2010,10,01,16,32,16.90
2010,10,01,16,33,16.80
2010,10,01,16,34,16.80
2010,10,01,16,35,16.70
2010,10,01,16,36,16.70
2010,10,01,16,37,16.60
2010,10,01,16,38,16.50
2010,10,01,16,39,16.40
2010,10,01,16,40,16.40
2010,10,01,16,41,16.40
2010,10,01,16,42,16.40
2010,10,01,16,43,16.40
2010,10,01,16,44,16.40
2010,10,01,16,45,16.40
2010,10,01,16,46,16.50
2010,10,01,16,47,16.60
2010,10,01,16,48,16.60
2010,10,01,16,49,16.50
2010,10,01,16,50,16.40
2010,10,01,16,51,16.40
2010,10,01,16,52,16.40
2010,10,01,16,53,16.40
2010,10,01,16,54,16.40
2010,10,01,16,55,16.30
2010,10,01,16,56,16.30
2010,10,01,16,57,16.20
2010,10,01,16,58,16.20
2010,10,01,16,59,16.30
2010,10,01,17,00,16.40
2010,10,01,17,01,16.40
2010,10,01,17,02,16.50
2010,10,01,17,03,16.60
2010,10,01,17,04,16.70
2010,10,01,17,05,16.70
2010,10,01,17,06,16.60
2010,10,01,17,07,16.50
2010,10,01,17,08,16.40
2010,10,01,17,09,16.40
2010,10,01,17,10,16.40
2010,10,01,17,11,16.30
2010,10,01,17,12,16.30
2010,10,01,17,13,16.30
2010,10,01,17,14,16.30
2010,10,01,17,15,16.30
2010,10,01,17,16,16.40
2010,10,01,17,17,16.30
2010,10,01,17,18,16.30
2010,10,01,17,19,16.30
2010,10,01,17,20,16.30
2010,10,01,17,21,16.30
2010,10,01,17,22,16.20